Location: Alafon
(8.4500°N, 4.2333°E)
Time: 07:52:28
(UTC+00:00)

Vanguard 1 - Visible Passes

Search period start: 31 July 2021 00:00
Search period end: 10 August 2021 00:00
Orbit: 651 x 3831 km, 34.2° (Epoch: 30 July)

Date Brightness Start Highest point End Pass type
(mag) Time Alt. Az. Time Alt. Az. Time Alt. Az.
31 Jul 13.6 19:59:16 10° W 20:16:37 35° SW 20:31:03 19° SSE visible
31 Jul 14.1 22:42:27 10° SW 22:43:47 10° SW 22:43:47 10° SW visible
01 Aug 13.0 17:55:04 10° WNW 18:10:25 65° SW 18:33:38 10° SE visible
01 Aug 13.7 20:22:46 10° W 20:39:02 27° SSW 20:51:01 18° S visible
02 Aug 12.4 04:07:48 10° S 04:12:43 15° SSE 04:16:31 10° ESE visible
02 Aug 13.2 18:16:42 10° WNW 18:32:13 52° SW 18:54:40 10° SE visible
02 Aug 13.8 20:47:21 10° WSW 21:01:48 21° SSW 21:10:59 16° S visible
03 Aug 11.9 04:27:27 10° SSW 04:34:23 24° SSE 04:39:08 10° E visible
03 Aug 13.4 18:38:46 10° W 18:54:14 41° SSW 19:15:27 10° SSE visible
03 Aug 14.0 21:13:25 10° SW 21:25:03 16° SSW 21:30:55 14° S visible
04 Aug 11.3 04:47:47 10° SW 04:55:52 36° SSE 05:00:56 10° E visible
04 Aug 13.6 19:01:23 10° W 19:16:29 33° SSW 19:36:02 10° SSE visible
04 Aug 14.1 21:41:38 10° SW 21:48:49 12° SSW 21:50:49 12° SSW visible
05 Aug 12.8 02:53:24 16° SSE 02:53:47 16° SSE 02:58:41 10° SE visible
05 Aug 10.6 05:08:34 10° SW 05:17:07 58° SSE 05:22:14 10° ENE visible
05 Aug 13.8 19:24:46 10° WSW 19:39:04 25° SSW 19:56:28 10° SSE visible
06 Aug 12.4 03:13:22 21° S 03:15:46 22° SSE 03:21:38 10° ESE visible
06 Aug 14.0 19:49:12 10° WSW 20:02:02 19° SSW 20:16:43 10° SSE visible
07 Aug 11.9 03:33:21 24° S 03:37:31 32° SSE 03:43:45 10° E visible
07 Aug 14.0 20:15:00 10° SW 20:25:28 15° SSW 20:36:46 10° S visible
08 Aug 11.3 03:53:20 25° SSW 03:59:02 47° SSE 04:05:18 10° ENE visible
08 Aug 13.6 18:04:16 10° W 18:16:55 29° SSW 18:34:44 10° SSE visible
08 Aug 14.1 20:42:41 10° SSW 20:49:27 12° SSW 20:56:22 10° S visible
09 Aug 12.9 02:00:34 18° SE 02:00:34 18° SE 02:03:44 10° ESE visible
09 Aug 10.7 04:13:18 23° SW 04:20:19 69° SSE 04:26:29 10° ENE visible
09 Aug 13.8 18:27:38 10° WSW 18:39:34 22° SSW 18:55:10 10° SSE visible
